Minot, ND

3:56 AM CDT on September 22, 2017 (GMT -0500)
Minot International

Weather History for KMOT - November, 2014

Change the Weather History Date:

Saturday, November 1, 2014

  Actual Average Record
Temperature  
Mean Temperature 40 °F 36 °F  
Max Temperature 50 °F 46 °F 73 °F (1983)
Min Temperature 30 °F 27 °F -1 °F (1935)
Degree Days  
Heating Degree Days 25 28  
Month to date heating degree days 25 28  
Since 1 July heating degree days 864 988  
Cooling Degree Days 0 0  
Month to date cooling degree days 0 0  
Year to date cooling degree days 341 445  
Moisture  
Dew Point 20 °F    
Average Humidity 54    
Maximum Humidity 72    
Minimum Humidity 36    
Precipitation  
Precipitation 0.00 in 0.03 in 1.05 in (2000)
Month to date precipitation 0.00 0.03  
Year to date precipitation 15.77 16.09  
Sea Level Pressure  
Sea Level Pressure 29.87 in    
Wind  
Wind Speed 10 mph (SE)    
Max Wind Speed 22 mph    
Max Gust Speed 29 mph    
Visibility 10 miles    
Events      
T = Trace of Precipitation, MM = Missing Value Source: NWS Daily Summary

Daily Weather History Graph

Daily Weather History Graph

Search for Another Location

Airport or City:

Trip Planner

Search our weather history database for the weather conditions in past years. The results will help you decide how hot, cold, wet, or windy it might be!

Date:

Astronomy

Nov. 01, 2014 Rise Set
Actual Time 8:30 AM CDT 6:25 PM CDT
Civil Twilight 7:58 AM CDT 6:58 PM CDT
Nautical Twilight 7:21 AM CDT 7:35 PM CDT
Astronomical Twilight 6:44 AM CDT 8:11 PM CDT
Moon 3:46 PM CDT (11/1) 2:00 AM CDT (11/1)
Length of Visible Light 11h 00m
Length of Day
9h 55m
Waxing Gibbous, 68% of the Moon is Illuminated
Nov 1
Waxing Gibbous
Nov 6
Full
Nov 14
Last Quarter
Nov 22
New
Nov 29
First Quarter

Hourly Weather History & Observations

Time (CDT) Temp. Windchill Dew Point Humidity Pressure Visibility Wind Dir Wind Speed Gust Speed Precip Events Conditions
12:54 AM 33.1 °F 20.6 °F 15.1 °F 48% 30.01 in 10.0 mi SE 23.0 mph 28.8 mph N/A   Clear
1:54 AM 33.1 °F 21.9 °F 15.1 °F 48% 30.00 in 10.0 mi SE 18.4 mph 29.9 mph N/A   Clear
2:54 AM 33.1 °F 23.9 °F 16.0 °F 50% 29.99 in 10.0 mi SSE 12.7 mph 21.9 mph N/A   Clear
3:54 AM 33.1 °F 22.6 °F 16.0 °F 50% 29.97 in 10.0 mi SE 16.1 mph - N/A   Clear
4:54 AM 32.0 °F 23.0 °F 17.1 °F 54% 29.96 in 10.0 mi SE 11.5 mph - N/A   Clear
5:54 AM 30.9 °F 23.5 °F 17.1 °F 57% 29.95 in 10.0 mi SE 8.1 mph - N/A   Clear
6:54 AM 30.9 °F 22.8 °F 18.0 °F 59% 29.94 in 10.0 mi SE 9.2 mph - N/A   Clear
7:54 AM 30.0 °F 22.4 °F 18.0 °F 61% 29.92 in 10.0 mi SE 8.1 mph - N/A   Clear
8:54 AM 30.9 °F 22.2 °F 18.0 °F 59% 29.90 in 10.0 mi SE 10.4 mph - N/A   Clear
9:54 AM 34.0 °F 27.2 °F 19.0 °F 54% 29.89 in 10.0 mi SE 8.1 mph - N/A   Clear
10:54 AM 37.9 °F 29.2 °F 19.9 °F 48% 29.88 in 10.0 mi SSE 15.0 mph 21.9 mph N/A   Clear
11:54 AM 42.8 °F 34.8 °F 21.2 °F 42% 29.81 in 10.0 mi SSE 17.3 mph - N/A   Clear
12:54 PM 44.1 °F 38.6 °F 21.9 °F 42% 29.85 in 10.0 mi SSE 10.4 mph - N/A   Clear
1:54 PM 46.0 °F 40.6 °F 21.9 °F 39% 29.83 in 10.0 mi SE 11.5 mph - N/A   Clear
2:54 PM 48.9 °F - 23.0 °F 36% 29.81 in 10.0 mi SE 10.4 mph - N/A   Clear
3:54 PM 48.9 °F - 23.0 °F 36% 29.80 in 10.0 mi SE 11.5 mph - N/A   Clear
4:54 PM 48.0 °F - 23.0 °F 37% 29.81 in 10.0 mi SSE 11.5 mph - N/A   Clear
5:54 PM 46.0 °F 41.4 °F 23.0 °F 40% 29.81 in 10.0 mi SE 9.2 mph - N/A   Clear
6:54 PM 41.0 °F 37.1 °F 24.1 °F 51% 29.83 in 10.0 mi ESE 5.8 mph - N/A   Clear
7:54 PM 39.9 °F 35.8 °F 25.0 °F 55% 29.81 in 10.0 mi SE 5.8 mph - N/A   Clear
8:54 PM 39.0 °F 34.8 °F 25.0 °F 57% 29.80 in 10.0 mi SE 5.8 mph - N/A   Clear
9:54 PM 35.1 °F 31.0 °F 24.1 °F 64% 29.79 in 10.0 mi East 4.6 mph - N/A   Clear
10:54 PM 30.9 °F 27.5 °F 23.0 °F 72% 29.79 in 10.0 mi East 3.5 mph - N/A   Clear
11:54 PM 32.0 °F - 23.0 °F 69% 29.79 in 10.0 mi Calm Calm - N/A   Clear